When you browse on this site, cookies collect data to enhance your experience and personalize the content and advertising you see.
Visit our Privacy Policy to learn more. By continuing to use the site, you agree to this use of cookies and data.
  • In Hungary
  • List of Countries
  • For 7 days
  • Water Temperature
  • Weather Map
  • News
  • Weather Widgets
  • user-avatar
    Login

    Hourly Weather Canecas

    Today, 9 April, Thursday

    Time Temperature Precipitation Wind Pressure Humidity
    00:00 +13°C° 0 mm 3 mps 743 mmHg 89%
    01:00 +13°C° 0 mm 3 mps 742 mmHg 89%
    02:00 +13°C° 0 mm 3 mps 741 mmHg 90%
    03:00 +13°C° 1.3 mm 3 mps 741 mmHg 91%
    04:00 +13°C° 1.3 mm 3 mps 742 mmHg 93%
    05:00 +13°C° 0 mm 4 mps 742 mmHg 94%
    06:00 +13°C° 1.1 mm 4 mps 742 mmHg 93%
    07:00 +13°C° 1.1 mm 4 mps 742 mmHg 92%
    08:00 +13°C° 1.1 mm 4 mps 742 mmHg 92%
    09:00 +14°C° 0.5 mm 4 mps 742 mmHg 91%
    10:00 +14°C° 0.5 mm 4 mps 743 mmHg 90%
    11:00 +14°C° 0 mm 4 mps 743 mmHg 90%
    12:00 +14°C° 0 mm 4 mps 743 mmHg 86%
    13:00 +15°C° 0 mm 4 mps 742 mmHg 83%
    14:00 +15°C° 0 mm 4 mps 742 mmHg 79%
    15:00 +16°C° 0 mm 3 mps 742 mmHg 80%
    16:00 +16°C° 0 mm 3 mps 743 mmHg 81%
    17:00 +16°C° 0 mm 2 mps 743 mmHg 81%
    18:00 +16°C° 0 mm 2 mps 743 mmHg 83%
    19:00 +15°C° 0 mm 2 mps 744 mmHg 86%
    20:00 +15°C° 0 mm 1 mps 744 mmHg 88%
    21:00 +15°C° 0.1 mm 1 mps 744 mmHg 89%
    22:00 +15°C° 0.1 mm 1 mps 744 mmHg 91%
    23:00 +15°C° 0.1 mm 2 mps 744 mmHg 93%

    Tomorrow, 10 April, Friday

    Time Temperature Precipitation Wind Pressure Humidity
    00:00 +15°C° 0.1 mm 2 mps 744 mmHg 94%
    01:00 +14°C° 0.1 mm 2 mps 744 mmHg 95%
    02:00 +14°C° 0.1 mm 2 mps 743 mmHg 96%
    03:00 +13°C° 0 mm 2 mps 744 mmHg 96%
    04:00 +13°C° 0 mm 2 mps 744 mmHg 96%
    05:00 +12°C° 0 mm 1 mps 744 mmHg 96%
    06:00 +14°C° 0 mm 1 mps 744 mmHg 89%
    07:00 +16°C° 0 mm 1 mps 745 mmHg 82%
    08:00 +18°C° 0 mm 1 mps 745 mmHg 75%
    09:00 +18°C° 0 mm 2 mps 745 mmHg 72%
    10:00 +19°C° 0 mm 2 mps 745 mmHg 69%
    11:00 +19°C° 0 mm 3 mps 745 mmHg 65%
    12:00 +19°C° 0 mm 3 mps 745 mmHg 64%
    13:00 +20°C° 0 mm 4 mps 745 mmHg 63%
    14:00 +20°C° 0 mm 5 mps 744 mmHg 62%
    15:00 +19°C° 0 mm 5 mps 744 mmHg 66%
    16:00 +17°C° 0 mm 5 mps 744 mmHg 69%
    17:00 +16°C° 0 mm 5 mps 744 mmHg 73%
    18:00 +15°C° 0 mm 4 mps 744 mmHg 78%
    19:00 +13°C° 0 mm 4 mps 745 mmHg 84%
    20:00 +12°C° 0 mm 3 mps 745 mmHg 89%
    21:00 +12°C° 0 mm 3 mps 745 mmHg 91%
    22:00 +12°C° 0 mm 3 mps 745 mmHg 92%
    23:00 +11°C° 0 mm 3 mps 745 mmHg 93%

    Day after tomorrow, 11 April, Saturday

    Time Temperature Precipitation Wind Pressure Humidity
    00:00 +11°C° 0 mm 3 mps 745 mmHg 93%
    01:00 +11°C° 0 mm 3 mps 744 mmHg 93%
    02:00 +12°C° 0 mm 2 mps 744 mmHg 93%
    03:00 +12°C° 0 mm 2 mps 744 mmHg 92%
    04:00 +10°C° 0 mm 2 mps 744 mmHg 91%
    05:00 +10°C° 0 mm 2 mps 744 mmHg 90%
    06:00 +13°C° 0 mm 2 mps 744 mmHg 83%
    07:00 +13°C° 0 mm 3 mps 745 mmHg 76%
    08:00 +15°C° 0 mm 4 mps 745 mmHg 70%
    09:00 +17°C° 0 mm 4 mps 745 mmHg 66%
    10:00 +18°C° 0 mm 4 mps 745 mmHg 62%
    11:00 +18°C° 0 mm 4 mps 744 mmHg 58%
    12:00 +17°C° 0 mm 5 mps 744 mmHg 58%
    13:00 +17°C° 0 mm 5 mps 744 mmHg 58%
    14:00 +17°C° 0 mm 5 mps 743 mmHg 57%
    15:00 +17°C° 0 mm 5 mps 743 mmHg 62%
    16:00 +16°C° 0 mm 5 mps 743 mmHg 66%
    17:00 +15°C° 0 mm 5 mps 743 mmHg 70%
    18:00 +14°C° 0 mm 5 mps 743 mmHg 77%
    19:00 +13°C° 0 mm 5 mps 743 mmHg 84%
    20:00 +12°C° 0 mm 4 mps 744 mmHg 91%
    21:00 +11°C° 0 mm 4 mps 744 mmHg 92%
    22:00 +11°C° 0 mm 4 mps 744 mmHg 92%
    23:00 +11°C° 0 mm 4 mps 743 mmHg 93%

    12 April, Sunday

    Time Temperature Precipitation Wind Pressure Humidity
    00:00 +11°C° 0 mm 4 mps 743 mmHg 93%
    01:00 +10°C° 0 mm 3 mps 743 mmHg 92%
    02:00 +10°C° 0 mm 2 mps 742 mmHg 91%
    03:00 +10°C° 0 mm 2 mps 742 mmHg 92%
    04:00 +10°C° 0 mm 2 mps 742 mmHg 93%
    05:00 +11°C° 0 mm 1 mps 741 mmHg 94%
    06:00 +12°C° 0.1 mm 1 mps 742 mmHg 88%
    07:00 +14°C° 0.1 mm 1 mps 742 mmHg 83%
    08:00 +16°C° 0.1 mm 2 mps 742 mmHg 77%
    09:00 +16°C° 0.1 mm 2 mps 742 mmHg 74%
    10:00 +17°C° 0.1 mm 3 mps 741 mmHg 71%
    11:00 +18°C° 0.1 mm 3 mps 741 mmHg 69%
    12:00 +18°C° 0.1 mm 4 mps 741 mmHg 67%
    13:00 +18°C° 0.1 mm 4 mps 740 mmHg 65%
    14:00 +17°C° 0.1 mm 5 mps 740 mmHg 63%
    15:00 +17°C° 0 mm 5 mps 739 mmHg 66%
    16:00 +16°C° 0 mm 5 mps 739 mmHg 68%
    17:00 +15°C° 0 mm 5 mps 739 mmHg 70%
    18:00 +14°C° 0 mm 5 mps 739 mmHg 76%
    19:00 +13°C° 0 mm 4 mps 739 mmHg 83%
    20:00 +11°C° 0 mm 4 mps 739 mmHg 89%
    21:00 +11°C° 0 mm 4 mps 739 mmHg 90%
    22:00 +11°C° 0 mm 4 mps 739 mmHg 91%
    23:00 +11°C° 0 mm 4 mps 738 mmHg 92%

    13 April, Monday

    Time Temperature Precipitation Wind Pressure Humidity
    00:00 +11°C° 0 mm 4 mps 738 mmHg 92%
    01:00 +10°C° 0 mm 4 mps 737 mmHg 91%
    02:00 +10°C° 0 mm 4 mps 736 mmHg 90%
    03:00 +10°C° 0 mm 4 mps 736 mmHg 90%
    04:00 +10°C° 0 mm 3 mps 735 mmHg 90%
    05:00 +9°C° 0 mm 3 mps 735 mmHg 90%
    06:00 +10°C° 0.3 mm 3 mps 735 mmHg 89%
    07:00 +11°C° 0.3 mm 4 mps 735 mmHg 88%
    08:00 +12°C° 0.3 mm 4 mps 735 mmHg 86%
    09:00 +13°C° 0.3 mm 4 mps 735 mmHg 81%
    10:00 +14°C° 0.3 mm 5 mps 734 mmHg 76%
    11:00 +14°C° 0.3 mm 5 mps 734 mmHg 71%
    12:00 +14°C° 0.1 mm 5 mps 734 mmHg 68%
    13:00 +14°C° 0.1 mm 5 mps 734 mmHg 65%
    14:00 +14°C° 0.1 mm 5 mps 733 mmHg 62%
    15:00 +13°C° 0 mm 4 mps 733 mmHg 62%
    16:00 +13°C° 0 mm 4 mps 733 mmHg 62%
    17:00 +12°C° 0 mm 4 mps 733 mmHg 62%
    18:00 +11°C° 0 mm 3 mps 733 mmHg 65%
    19:00 +10°C° 0 mm 3 mps 733 mmHg 68%
    20:00 +8°C° 0 mm 2 mps 733 mmHg 71%
    21:00 +8°C° 0 mm 2 mps 733 mmHg 72%
    22:00 +8°C° 0 mm 3 mps 733 mmHg 72%
    23:00 +8°C° 0 mm 3 mps 732 mmHg 72%

    14 April, Tuesday

    Time Temperature Precipitation Wind Pressure Humidity
    00:00 +8°C° 0 mm 3 mps 732 mmHg 75%
    01:00 +7°C° 0 mm 4 mps 731 mmHg 77%
    02:00 +6°C° 0 mm 4 mps 731 mmHg 79%
    03:00 +6°C° 0.1 mm 4 mps 730 mmHg 82%
    04:00 +6°C° 0.1 mm 5 mps 730 mmHg 84%
    05:00 +6°C° 0.1 mm 5 mps 730 mmHg 86%
    06:00 +7°C° 0.4 mm 6 mps 729 mmHg 85%
    07:00 +8°C° 0.4 mm 6 mps 729 mmHg 83%
    08:00 +9°C° 0.4 mm 7 mps 729 mmHg 81%
    09:00 +10°C° 0.4 mm 7 mps 729 mmHg 76%
    10:00 +11°C° 0.4 mm 7 mps 729 mmHg 72%
    11:00 +14°C° 0.4 mm 7 mps 729 mmHg 67%
    12:00 +14°C° 0.5 mm 6 mps 728 mmHg 68%
    13:00 +14°C° 0.5 mm 5 mps 728 mmHg 68%
    14:00 +13°C° 0.5 mm 5 mps 728 mmHg 69%
    15:00 +13°C° 0.4 mm 4 mps 728 mmHg 73%
    16:00 +12°C° 0.4 mm 3 mps 728 mmHg 76%
    17:00 +12°C° 0.4 mm 2 mps 728 mmHg 80%
    18:00 +12°C° 0.2 mm 2 mps 728 mmHg 82%
    19:00 +10°C° 0.2 mm 2 mps 728 mmHg 83%
    20:00 +9°C° 0.2 mm 2 mps 729 mmHg 85%
    21:00 +9°C° 0.1 mm 2 mps 729 mmHg 85%
    22:00 +10°C° 0.1 mm 1 mps 729 mmHg 85%
    23:00 +10°C° 0.1 mm 1 mps 729 mmHg 85%
    Show more